Location: ????????
(56.0167°N, 38.0333°E)
Time: 02:36:17
(UTC+00:00)

SL-16 R/B - Pass Details

Date: 19 May 2025
Orbit: 842 x 846 km, 71.0° (Epoch: 12 June)

Event Time Altitude Azimuth Distance (km) Brightness Sun altitude
Rises 22:33:12 0° 322° (NW) 3,412 5.9 -12.6°
Reaches altitude 10° 22:35:53 10° 331° (NNW) 2,474 5.3 -12.5°
Maximum altitude 22:41:03 35° 37° (NE) 1,343 4.0 -12.3°
Drops below altitude 10° 22:46:13 10° 102° (ESE) 2,464 4.7 -12.1°
Sets 22:48:52 0° 112° (ESE) 3,396 5.3 -11.9°
